Whidbey Island, WA

8:45 AM PDT on April 27, 2017 (GMT -0700)
Whidbey Island Naval Air Station

Weather History for KNUW - June, 2013

Change the Weather History Date:

Thursday, June 20, 2013

  Actual Average Record
Temperature  
Mean Temperature 52 °F -  
Max Temperature 54 °F 61 °F 70 °F (2016)
Min Temperature 51 °F 48 °F 44 °F (2012)
Degree Days  
Heating Degree Days 12    
Growing Degree Days 2 (Base 50)    
Moisture  
Dew Point 49 °F    
Average Humidity 88    
Maximum Humidity 94    
Minimum Humidity 80    
Precipitation  
Precipitation 0.22 in - - ()
Sea Level Pressure  
Sea Level Pressure 30.02 in    
Wind  
Wind Speed 17 mph (West)    
Max Wind Speed 22 mph    
Max Gust Speed 29 mph    
Visibility 8 miles    
Events Rain    
Averages and records for this station are not official NWS values.
T = Trace of Precipitation, MM = Missing Value Source: NWS Daily Summary

Daily Weather History Graph

Daily Weather History Graph

Search for Another Location

Airport or City:

Trip Planner

Search our weather history database for the weather conditions in past years. The results will help you decide how hot, cold, wet, or windy it might be!

Date:

Astronomy

Jun. 20, 2013 Rise Set
Actual Time 5:09 AM PDT 9:15 PM PDT
Civil Twilight 4:27 AM PDT 9:57 PM PDT
Nautical Twilight 3:28 AM PDT 10:56 PM PDT
Astronomical Twilight 1:37 AM PDT 12:47 AM PDT
Moon 6:15 PM PDT (6/20) 2:51 AM PDT (6/20)
Length of Visible Light 17h 29m
Length of Day
16h 06m
Waxing Gibbous, 89% of the Moon is Illuminated
Jun 20
Waxing Gibbous
Jun 23
Full
Jun 29
Last Quarter
Jul 8
New
Jul 15
First Quarter

Hourly Weather History & Observations

Time (PDT) Temp. Dew Point Humidity Pressure Visibility Wind Dir Wind Speed Gust Speed Precip Events Conditions
12:56 AM 54.0 °F 48.9 °F 83% 30.02 in 10.0 mi West 16.1 mph 24.2 mph N/A   Overcast
1:56 AM 54.0 °F 48.9 °F 83% 30.01 in 10.0 mi West 17.3 mph - N/A   Overcast
2:56 AM 54.0 °F 48.0 °F 80% 30.00 in 10.0 mi West 21.9 mph 28.8 mph N/A   Overcast
3:34 AM 53.6 °F 48.2 °F 82% 29.98 in 10.0 mi West 15.0 mph - 0.00 in Rain Light Rain
3:56 AM 53.1 °F 48.9 °F 86% 29.99 in 10.0 mi WSW 17.3 mph - 0.00 in Rain Light Rain
4:56 AM 52.0 °F 50.0 °F 93% 29.99 in 7.0 mi West 16.1 mph 21.9 mph 0.00 in Rain Light Rain
5:56 AM 52.0 °F 50.0 °F 93% 29.99 in 7.0 mi West 16.1 mph - 0.01 in Rain Light Rain
6:56 AM 53.1 °F 48.9 °F 86% 29.97 in 6.0 mi West 20.7 mph - 0.00 in Rain Light Rain
7:56 AM 53.1 °F 48.9 °F 86% 29.96 in 6.0 mi West 19.6 mph 26.5 mph 0.00 in Rain Light Rain
8:56 AM 52.0 °F 48.9 °F 89% 29.97 in 6.0 mi West 20.7 mph 27.6 mph 0.01 in Rain Light Rain
9:56 AM 53.1 °F 48.9 °F 86% 29.97 in 7.0 mi West 19.6 mph 25.3 mph 0.00 in Rain Light Rain
10:56 AM 53.1 °F 48.9 °F 86% 29.97 in 7.0 mi West 18.4 mph 26.5 mph 0.01 in Rain Light Rain
11:45 AM 53.6 °F 50.0 °F 88% 29.97 in 4.0 mi West 18.4 mph 27.6 mph 0.03 in Rain Light Rain
11:56 AM 53.6 °F 51.8 °F 94% 29.99 in 4.0 mi SW 15.0 mph 23.0 mph 0.04 in Rain Light Rain
12:56 PM 54.0 °F 51.1 °F 90% 29.99 in 4.0 mi SW 9.2 mph - 0.05 in Rain Rain
1:56 PM 54.0 °F 50.0 °F 86% 30.00 in 8.0 mi West 12.7 mph 18.4 mph 0.03 in Rain Light Rain
2:56 PM 54.0 °F 51.1 °F 90% 30.01 in 7.0 mi West 15.0 mph 20.7 mph 0.02 in Rain Light Rain
3:56 PM 53.1 °F 50.0 °F 89% 30.02 in 8.0 mi West 15.0 mph 21.9 mph 0.01 in Rain Light Rain
4:56 PM 53.1 °F 50.0 °F 89% 30.04 in 9.0 mi West 20.7 mph 26.5 mph 0.01 in Rain Light Rain
5:56 PM 53.1 °F 50.0 °F 89% 30.06 in 9.0 mi West 12.7 mph - 0.02 in Rain Light Rain
6:56 PM 52.0 °F 48.9 °F 89% 30.07 in 10.0 mi West 16.1 mph - 0.00 in Rain Light Rain
7:56 PM 52.0 °F 48.9 °F 89% 30.08 in 10.0 mi West 15.0 mph - 0.00 in Rain Light Rain
8:56 PM 52.0 °F 48.9 °F 89% 30.09 in 10.0 mi West 15.0 mph - 0.01 in Rain Light Rain
9:26 PM 51.8 °F 48.2 °F 88% 30.09 in 10.0 mi West 15.0 mph - 0.00 in   Overcast
9:56 PM 52.0 °F 48.9 °F 89% 30.11 in 10.0 mi WSW 12.7 mph - 0.00 in   Overcast
10:56 PM 52.0 °F 50.0 °F 93% 30.12 in 10.0 mi SW 9.2 mph - N/A   Overcast
11:56 PM 52.0 °F 50.0 °F 93% 30.12 in 10.0 mi SW 9.2 mph - N/A   Overcast